Location: Shenandoah County Park
(38.9356°N, 78.4524°W)
Time: 13:50:48
(UTC-05:00)

Transit 2A - Pass Details

Date: 18 October 2025
Orbit: 591 x 954 km, 66.7° (Epoch: 07 November)

Event Time Altitude Azimuth Distance (km) Brightness Sun altitude
Exits shadow 06:00:27 22° 239° (WSW) 1,928 7.6 -17.5°
Drops below altitude 10° 06:04:10 10° 204° (SSW) 2,671 8.6 -16.8°
Sets 06:07:12 0° 190° (S) 3,600 9.4 -16.2°
